Regional Weather Roundup
Issued by NWS Upton, NY

Current Version | Previous Version | Text Only | Print | Product List | Glossary On
Versions: 1 2 3 4 5 6 7 8 9 10 11 12 13 14 15 16 17 18 19 20 21 22 23 24 25 26 27 28 29 30 31 32 33 34 35 36 37 38 39 40 41 42 43 44 45 46 47 48 49 50
079 ASUS41 KOKX 241205 RWROKX Regional Weather Roundup National Weather Service New York NY 800 AM EDT THU MAY 24 2018 Note: "FAIR" indicates few or no clouds below 12,000 feet with no significant weather and/or obstructions to visibility. NYZ071-072-176-178-NJZ106-104-241300- New York City Metro Area CITY SKY/WX TMP DP RH WIND PRES REMARKS Central Park FAIR 66 53 63 VRB6 30.15R Bronx Bot Gard N/A 70 52 52 CALM 30.12F Bronx Lehman C N/A 66 52 59 NW5 N/A LaGuardia Arpt FAIR 68 52 56 NW6 30.12R Queens College N/A 68 52 56 NW8 N/A Kennedy Intl FAIR 70 53 54 N12 30.12R Breezy Point N/A 68 N/A N/A NW6 N/A Brooklyn Coll N/A 70 52 52 NW6 N/A Staten Island N/A 68 52 56 NW7 N/A Newark/Liberty FAIR 70 52 52 NW5 30.12R Teterboro FAIR 69 54 58 N7 30.11R $$ NYZ177-179-078>081-241300- Long Island New York CITY SKY/WX TMP DP RH WIND PRES REMARKS Jones Beach N/A 68 N/A N/A N12 N/A Wantagh N/A 68 50 52 N9 N/A Hempstead N/A 68 54 60 NW7 30.14R Matinecock Pt N/A 66 N/A N/A W2 N/A Farmingdale FAIR 68 50 52 N9 30.11R MacArthur/ISP FAIR 68 52 56 N12 30.10R Stony Brook N/A 64 54 68 NW6 N/A Shirley PTSUNNY 69 53 56 N8 30.10R Mt Sinai Harb N/A N/A N/A N/A NW6 N/A Westhampton FAIR 67 53 61 N9 30.11R East Hampton FAIR 64 53 68 N8 30.09R Southold N/A 63 52 67 N8 N/A Montauk N/A 61 52 72 N3 30.10R $$ NYZ052-065-067-241300- Hudson Valley CITY SKY/WX TMP DP RH WIND PRES REMARKS White Plains FAIR 66 51 58 NW8 30.12R Larchmont Harb N/A 63 N/A N/A MISG N/A Croton On Huds N/A 68 N/A N/A MISG N/A Somers N/A 64 50 59 NW3 N/A Brewster N/A 63 46 55 N12 N/A Newburgh SUNNY 63 55 77 W6 30.15R Montgomery FAIR 65 51 60 W3 30.13R Otisville N/A 61 52 72 SW3 N/A Warwick N/A 63 55 77 W5 N/A Suffern N/A 64 50 59 SW1 N/A Poughkeepsie FAIR 60 52 74 CALM 30.13R Albany FAIR 62 46 55 NW12 30.15R $$ NJZ001-105-106-008-010-013-015-019>022-104-241300- New Jersey CITY SKY/WX TMP DP RH WIND PRES REMARKS Newark/Liberty FAIR 70 52 52 NW5 30.12R Teterboro FAIR 69 54 58 N7 30.11R Caldwell FAIR 67 53 61 W3 30.14R Somerville FAIR 65 57 75 NW5 30.13R Linden FAIR 67 52 57 N9 30.13R Perth Amboy N/A 66 N/A N/A NW13 N/A Sussex FAIR 64 54 69 VRB6 30.16R Andover N/A 63 55 75 NW6 30.16R Trenton FAIR 68 53 58 N7 30.14R Millville FAIR 69 56 62 N7 30.14R Atlantic City FAIR 70 55 59 N10 30.13R Wrightstown FAIR 68 54 61 NW10 30.11 Toms River FAIR 67 54 63 N8 30.14R Belmar FAIR 67 54 63 NW10 30.14R $$ PAZ047>061-062-071-241300- Eastern Pennsylvania CITY SKY/WX TMP DP RH WIND PRES REMARKS Philadelphia FAIR 69 51 52 N14 30.14S Allentown FAIR 65 52 62 NW9 30.17R Scranton FAIR 61 50 67 CALM 30.20R $$ CTZ002-004>006-009-010-012-RIZ004-006-007-MAZ004-011-015-241300- Southern New England In CT CITY SKY/WX TMP DP RH WIND PRES REMARKS Bradley Intl FAIR 65 53 65 NE7 30.10R Hartford FAIR 65 54 67 NE6 30.10R Danbury SUNNY 66 46 48 NW7 30.13R Wtrbury/Oxford FAIR 63 47 55 N14 30.12R Norwalk Harbor N/A 61 N/A N/A SE5 N/A Bridgeport FAIR 68 49 50 N9 30.11R Meriden FAIR 66 48 52 N6 30.10R New Haven FAIR 69 47 45 N6 30.10R Chester FAIR 68 52 56 N9 30.10R Groton FAIR 64 55 72 N7 30.08R Willimantic FAIR 63 53 70 CALM 30.10R In RI CITY SKY/WX TMP DP RH WIND PRES REMARKS Providence FAIR 61 53 75 NE6 30.09R Block Island FAIR 59 55 87 NE7 30.09R Westerly FAIR 65 57 75 N6 30.08R In MA CITY SKY/WX TMP DP RH WIND PRES REMARKS Boston FAIR 57 51 80 E5 30.10R Worcester FAIR 60 32 34 NW15G22 30.10R Westfield FAIR 64 51 62 N6 30.10R Provincetown FAIR 56 50 80 E6 30.10R Nantucket FAIR 57 48 72 E13 30.06R $$ ANZ330-335-338-340-345-350-353-355-241300- Coastal Marine Observations STATION/POSITION TIME SKY/WX TEMP WIND PRES VSBY WAVE AIR SEA DIR/SP/G HT/PER (UTC) (F) (DEG/KT/KT) (MB) (MI) (FT/S) NY Harb Entrance 1150 61 58 310/ 8/ 10 1019.8 2/ 7 20 S Fire Island 1150 59 55 320/ 8/ 8 1019.3 2/ 8 23 SSW Montauk P 1150 57 55 350/ 8/ 8 1018.8 2/ 7 15 E Barnegat Li 1130 59 N/A 3/ 6 Hudson Canyon 1150 59 53 330/ 10/ 10 1018.3 3/ 8 Kings Point 1130 63 58 30/ 3/ 5 1020.8 Execution Rocks NOT AVBL Western LI Sound NOT AVBL Central LI Sound 1145 58 320/ 4/ 6 N/A 0 Robbins Reef 1136 67 330/ 6/ 7 1020.5 $$ >>>>>>>>>>>>>>>>>>>>>>>>>>>> KEY <<<<<<<<<<<<<<<<<<<<<<<<<<< > < > SKY/WX - Sky Condition/Present Weather < > TMP - Temperature in Fahrenheit < > DP - Dew Point in Fahrenheit < > RH - Relative Humidity in Percent < > WIND - Direction (from) and Speed in MPH < > PRES - Mean Sea Level Pressure (inches of Hg) < > WCI - Wind Chill Index < > VSB - Visibility in Miles < > HX - Heat Index < > TC - Temperature in Celsius < > VRB - Varibale Wind Direction < > < >>>>>>>>>>>>>>>>>>>>>>>>>>>> KEY <<<<<<<<<<<<<<<<<<<<<<<<<<<

USA.gov is the U.S. government's official web portal to all federal, state and local government web resources and services.